| time (UTC) | temp F | wind direction | speed knots | gust knots | rain 1hr in | rain 24hr in | rain mn in | humidity % | barometer mb |
| 20260508063017 | 57 | 10 | 0.9 | 1.7 | 0.00 | 0.00 | 0.00 | 96 | 1017.4 |
| 20260508062101 | 56 | 9 | 0.9 | 1.7 | 0.00 | 0.00 | 0.00 | 99 | 1017.5 |
| 20260508061032 | 55 | 283 | 0.9 | 4.3 | 0.00 | 0.00 | 0.00 | 99 | 1017.5 |
| 20260508060024 | 55 | 252 | 1.7 | 2.6 | 0.00 | 0.00 | 0.00 | 99 | 1017.5 |
| 20260508055016 | 54 | 233 | 0.9 | 2.6 | 0.00 | 0.00 | 0.00 | 99 | 1017.5 |
| 20260508054041 | 53 | 241 | 1.7 | 2.6 | 0.00 | 0.00 | 0.00 | 99 | 1017.6 |
| 20260508053032 | 54 | 277 | 0.9 | 2.6 | 0.00 | 0.00 | 0.00 | 99 | 1017.6 |
| 20260508052024 | 53 | 349 | 1.7 | 4.3 | 0.00 | 0.00 | 0.00 | 99 | 1017.6 |
| 20260508051037 | 53 | 4 | 1.7 | 5.2 | 0.00 | 0.00 | 0.00 | 99 | 1017.6 |
| 20260508050041 | 53 | 281 | 1.7 | 2.6 | 0.00 | 0.00 | 0.00 | 99 | 1017.5 |
| 20260508045032 | 53 | 264 | 0.9 | 1.7 | 0.00 | 0.00 | 0.00 | 99 | 1017.5 |
| 20260508044044 | 53 | 8 | 0.0 | 1.7 | 0.00 | 0.00 | 0.00 | 99 | 1017.2 |
| 20260508043016 | 53 | 305 | 0.9 | 2.6 | 0.00 | 0.00 | 0.00 | 99 | 1017.2 |
| 20260508042041 | 53 | 352 | 0.0 | 0.9 | 0.00 | 0.00 | 0.00 | 99 | 1017.1 |
| 20260508041032 | 53 | 10 | 0.0 | 1.7 | 0.00 | 0.00 | 0.00 | 99 | 1016.9 |
| 20260508040042 | 52 | 11 | 0.9 | 1.7 | 0.00 | 0.00 | 0.00 | 99 | 1016.8 |
| 20260508035032 | 53 | 358 | 0.0 | 0.9 | 0.00 | 0.00 | 0.00 | 99 | 1016.7 |
| 20260508034025 | 52 | 58 | 0.0 | 0.9 | 0.00 | 0.00 | 0.00 | 99 | 1016.8 |
| 20260508033055 | 52 | 79 | 0.9 | 1.7 | 0.00 | 0.00 | 0.00 | 99 | 1016.7 |
| 20260508032041 | 52 | 0.0 | 0.0 | 0.00 | 0.00 | 0.00 | 99 | 1016.8 | |
| 20260508031033 | 52 | 103 | 0.9 | 1.7 | 0.00 | 0.00 | 0.00 | 99 | 1016.7 |
| 20260508030024 | 52 | 78 | 0.0 | 0.9 | 0.00 | 0.00 | 0.00 | 99 | 1016.7 |
| 20260508025017 | 52 | 21 | 0.0 | 0.9 | 0.00 | 0.00 | 0.00 | 99 | 1016.7 |
| 20260508024041 | 52 | 134 | 0.9 | 1.7 | 0.00 | 0.00 | 0.00 | 99 | 1016.7 |
| 20260508023032 | 52 | 128 | 0.9 | 1.7 | 0.00 | 0.00 | 0.00 | 99 | 1016.6 |
| 20260508022025 | 52 | 130 | 0.9 | 1.7 | 0.00 | 0.00 | 0.00 | 99 | 1016.6 |
| 20260508021016 | 52 | 59 | 0.9 | 1.7 | 0.00 | 0.00 | 0.00 | 99 | 1016.8 |
| 20260508020042 | 52 | 53 | 0.0 | 0.9 | 0.00 | 0.00 | 0.00 | 99 | 1016.7 |
| 20260508015017 | 52 | 138 | 1.7 | 1.7 | 0.00 | 0.00 | 0.00 | 99 | 1016.7 |
| 20260508014105 | 52 | 0.0 | 0.0 | 0.00 | 0.00 | 0.00 | 99 | 1016.8 | |
| 20260508013037 | 52 | 0.0 | 0.0 | 0.00 | 0.00 | 0.00 | 99 | 1016.8 | |
| 20260508012101 | 52 | 23 | 0.0 | 0.9 | 0.00 | 0.00 | 0.00 | 99 | 1016.9 |
| 20260508011053 | 51 | 109 | 0.9 | 1.7 | 0.00 | 0.00 | 0.00 | 99 | 1017.1 |
| 20260508010024 | 52 | 0.0 | 0.0 | 0.00 | 0.00 | 0.00 | 99 | 1017.0 | |
| 20260508005017 | 52 | 97 | 0.9 | 1.7 | 0.00 | 0.00 | 0.00 | 99 | 1017.0 |
| 20260508004025 | 52 | 97 | 0.9 | 2.6 | 0.00 | 0.00 | 0.00 | 99 | 1017.0 |
| 20260508003032 | 52 | 71 | 0.0 | 1.7 | 0.00 | 0.00 | 0.00 | 99 | 1017.0 |
| 20260508002040 | 52 | 76 | 0.9 | 1.7 | 0.00 | 0.00 | 0.00 | 99 | 1017.1 |
| 20260508001037 | 52 | 160 | 0.9 | 2.6 | 0.00 | 0.00 | 0.00 | 99 | 1017.2 |
| 20260508000041 | 53 | 69 | 0.0 | 0.9 | 0.00 | 0.00 | 0.00 | 99 | 1017.2 |
| 20260507235017 | 53 | 78 | 0.9 | 1.7 | 0.00 | 0.00 | 0.00 | 99 | 1017.2 |
| 20260507234045 | 53 | 65 | 1.7 | 4.3 | 0.00 | 0.00 | 0.00 | 99 | 1017.0 |
| 20260507233017 | 53 | 79 | 1.7 | 5.2 | 0.00 | 0.00 | 0.00 | 99 | 1016.9 |
| 20260507232101 | 53 | 80 | 2.6 | 6.1 | 0.00 | 0.00 | 0.00 | 99 | 1017.1 |
| 20260507231017 | 53 | 49 | 1.7 | 5.2 | 0.00 | 0.00 | 0.00 | 99 | 1017.0 |
| 20260507230041 | 54 | 57 | 0.9 | 2.6 | 0.00 | 0.00 | 0.00 | 99 | 1017.1 |
| 20260507225052 | 54 | 75 | 0.9 | 4.3 | 0.00 | 0.00 | 0.00 | 99 | 1017.1 |
| 20260507224025 | 54 | 62 | 1.7 | 5.2 | 0.00 | 0.00 | 0.00 | 99 | 1017.1 |
| 20260507223053 | 54 | 58 | 1.7 | 4.3 | 0.00 | 0.00 | 0.00 | 99 | 1017.2 |
| 20260507222026 | 54 | 46 | 0.9 | 5.2 | 0.00 | 0.00 | 0.00 | 99 | 1017.3 |
| 20260507221017 | 54 | 24 | 0.0 | 0.9 | 0.00 | 0.00 | 0.00 | 99 | 1017.4 |
| 20260507220032 | 54 | 48 | 1.7 | 7.0 | 0.00 | 0.00 | 0.00 | 99 | 1017.4 |
| 20260507215018 | 54 | 56 | 1.7 | 6.1 | 0.00 | 0.00 | 0.00 | 99 | 1017.4 |
| 20260507214045 | 54 | 53 | 2.6 | 7.0 | 0.00 | 0.00 | 0.00 | 99 | 1017.4 |
| 20260507213033 | 54 | 56 | 2.6 | 5.2 | 0.00 | 0.00 | 0.00 | 99 | 1017.3 |
| 20260507212025 | 54 | 44 | 1.7 | 4.3 | 0.00 | 0.00 | 0.00 | 99 | 1017.3 |
| 20260507211052 | 54 | 64 | 2.6 | 7.8 | 0.00 | 0.00 | 0.00 | 99 | 1017.4 |
| 20260507210041 | 54 | 39 | 2.6 | 6.1 | 0.00 | 0.00 | 0.00 | 99 | 1017.3 |
| 20260507205017 | 54 | 52 | 1.7 | 5.2 | 0.00 | 0.00 | 0.00 | 99 | 1017.4 |
| 20260507204025 | 54 | 56 | 1.7 | 5.2 | 0.00 | 0.00 | 0.00 | 99 | 1017.3 |
| 20260507203034 | 54 | 53 | 1.7 | 4.3 | 0.00 | 0.00 | 0.00 | 99 | 1017.3 |
| 20260507202041 | 54 | 50 | 1.7 | 5.2 | 0.00 | 0.00 | 0.00 | 99 | 1017.3 |
| 20260507201017 | 55 | 51 | 2.6 | 5.2 | 0.00 | 0.00 | 0.00 | 99 | 1017.4 |
| 20260507200026 | 55 | 46 | 1.7 | 5.2 | 0.00 | 0.00 | 0.00 | 99 | 1017.5 |
| 20260507195018 | 55 | 65 | 1.7 | 5.2 | 0.00 | 0.00 | 0.00 | 99 | 1017.4 |
| 20260507194045 | 55 | 44 | 2.6 | 5.2 | 0.00 | 0.00 | 0.00 | 99 | 1017.4 |
| 20260507193112 | 55 | 45 | 1.7 | 4.3 | 0.00 | 0.00 | 0.00 | 99 | 1017.4 |
| 20260507192042 | 55 | 35 | 1.7 | 4.3 | 0.00 | 0.00 | 0.00 | 99 | 1017.3 |
| 20260507191032 | 55 | 23 | 1.7 | 5.2 | 0.00 | 0.00 | 0.00 | 99 | 1017.3 |
| 20260507190025 | 55 | 42 | 3.5 | 7.0 | 0.00 | 0.00 | 0.00 | 99 | 1017.4 |
| 20260507185018 | 54 | 51 | 0.9 | 5.2 | 0.00 | 0.00 | 0.00 | 99 | 1017.3 |
| 20260507184042 | 54 | 39 | 2.6 | 7.0 | 0.00 | 0.00 | 0.00 | 99 | 1017.2 |
| 20260507183032 | 54 | 68 | 1.7 | 6.1 | 0.00 | 0.00 | 0.00 | 99 | 1017.3 |
| 20260507182041 | 54 | 58 | 1.7 | 7.8 | 0.00 | 0.00 | 0.00 | 99 | 1017.2 |
| 20260507181032 | 54 | 42 | 3.5 | 6.1 | 0.00 | 0.00 | 0.00 | 99 | 1016.9 |
| 20260507175031 | 55 | 68 | 1.7 | 6.1 | 0.00 | 0.00 | 0.00 | 99 | 1017.1 |
| 20260507174025 | 55 | 62 | 1.7 | 4.3 | 0.00 | 0.00 | 0.00 | 98 | 1017.1 |
| 20260507173057 | 55 | 59 | 4.3 | 7.8 | 0.00 | 0.00 | 0.00 | 98 | 1016.8 |
| 20260507172101 | 55 | 84 | 4.3 | 8.7 | 0.00 | 0.00 | 0.00 | 98 | 1016.9 |
| 20260507171033 | 55 | 52 | 6.1 | 9.6 | 0.00 | 0.00 | 0.00 | 97 | 1016.9 |
| 20260507170026 | 55 | 64 | 4.3 | 11.3 | 0.00 | 0.00 | 0.00 | 97 | 1016.9 |
| 20260507165017 | 55 | 67 | 4.3 | 7.8 | 0.00 | 0.00 | 0.00 | 96 | 1017.0 |
| 20260507164101 | 55 | 30 | 3.5 | 7.8 | 0.00 | 0.00 | 0.00 | 96 | 1017.0 |
| 20260507163032 | 55 | 60 | 4.3 | 9.6 | 0.00 | 0.00 | 0.00 | 95 | 1016.9 |
| 20260507162026 | 56 | 64 | 3.5 | 7.8 | 0.00 | 0.00 | 0.00 | 95 | 1016.8 |
| 20260507161017 | 56 | 59 | 3.5 | 7.8 | 0.00 | 0.00 | 0.00 | 94 | 1016.8 |
| 20260507160041 | 56 | 39 | 3.5 | 8.7 | 0.00 | 0.00 | 0.00 | 94 | 1016.8 |
| 20260507155032 | 56 | 64 | 2.6 | 7.0 | 0.00 | 0.00 | 0.00 | 93 | 1016.8 |
| 20260507154046 | 56 | 40 | 3.5 | 12.2 | 0.00 | 0.00 | 0.00 | 92 | 1016.9 |
| 20260507153017 | 57 | 63 | 3.5 | 7.8 | 0.00 | 0.00 | 0.00 | 91 | 1016.8 |
| 20260507152041 | 58 | 40 | 3.5 | 12.2 | 0.00 | 0.00 | 0.00 | 89 | 1016.9 |
| 20260507151019 | 58 | 41 | 4.3 | 9.6 | 0.00 | 0.00 | 0.00 | 88 | 1017.1 |
| 20260507150026 | 59 | 38 | 3.5 | 7.0 | 0.00 | 0.00 | 0.00 | 86 | 1017.0 |
| 20260507145018 | 59 | 54 | 2.6 | 5.2 | 0.00 | 0.00 | 0.00 | 86 | 1017.2 |
| 20260507144025 | 59 | 51 | 3.5 | 8.7 | 0.00 | 0.00 | 0.00 | 86 | 1017.1 |
| 20260507143017 | 59 | 62 | 3.5 | 8.7 | 0.00 | 0.00 | 0.00 | 85 | 1017.1 |
| 20260507142041 | 60 | 18 | 3.5 | 7.8 | 0.00 | 0.00 | 0.00 | 85 | 1017.2 |
| 20260507141033 | 60 | 57 | 2.6 | 7.0 | 0.00 | 0.00 | 0.00 | 85 | 1017.2 |
| 20260507140026 | 60 | 39 | 3.5 | 7.8 | 0.00 | 0.00 | 0.00 | 84 | 1017.2 |
| 20260507135110 | 59 | 54 | 3.5 | 11.3 | 0.00 | 0.00 | 0.00 | 86 | 1017.2 |
| 20260507134026 | 59 | 36 | 4.3 | 13.0 | 0.00 | 0.00 | 0.00 | 86 | 1017.2 |
| 20260507133037 | 59 | 61 | 4.3 | 12.2 | 0.00 | 0.00 | 0.00 | 86 | 1017.1 |
| 20260507132026 | 59 | 52 | 3.5 | 7.0 | 0.00 | 0.00 | 0.00 | 86 | 1017.2 |
| 20260507131018 | 59 | 40 | 4.3 | 13.9 | 0.00 | 0.00 | 0.00 | 85 | 1017.3 |
| 20260507130041 | 59 | 61 | 3.5 | 7.8 | 0.00 | 0.00 | 0.00 | 85 | 1017.4 |
| 20260507125034 | 60 | 74 | 4.3 | 12.2 | 0.00 | 0.00 | 0.00 | 84 | 1017.3 |
| 20260507124025 | 60 | 85 | 3.5 | 7.8 | 0.00 | 0.00 | 0.00 | 84 | 1017.5 |
| 20260507123017 | 59 | 63 | 2.6 | 7.0 | 0.00 | 0.00 | 0.00 | 86 | 1017.6 |
| 20260507122041 | 58 | 54 | 7.0 | 17.4 | 0.00 | 0.00 | 0.00 | 87 | 1017.8 |
| 20260507121034 | 59 | 69 | 6.1 | 15.6 | 0.00 | 0.00 | 0.00 | 85 | 1017.8 |
| 20260507120026 | 58 | 47 | 3.5 | 7.8 | 0.00 | 0.00 | 0.00 | 87 | 1017.9 |
| 20260507115018 | 58 | 52 | 4.3 | 12.2 | 0.00 | 0.00 | 0.00 | 86 | 1018.0 |
| 20260507114102 | 58 | 36 | 5.2 | 9.6 | 0.00 | 0.00 | 0.00 | 87 | 1017.9 |
| 20260507113034 | 58 | 31 | 4.3 | 9.6 | 0.00 | 0.00 | 0.00 | 86 | 1017.9 |
| 20260507112043 | 59 | 50 | 3.5 | 12.2 | 0.00 | 0.00 | 0.00 | 85 | 1018.0 |
| 20260507111054 | 58 | 54 | 6.1 | 12.2 | 0.00 | 0.00 | 0.00 | 86 | 1018.0 |
| 20260507110042 | 59 | 72 | 5.2 | 11.3 | 0.00 | 0.00 | 0.00 | 84 | 1018.0 |
| 20260507105034 | 60 | 43 | 2.6 | 7.8 | 0.00 | 0.00 | 0.00 | 82 | 1018.0 |
| 20260507104026 | 60 | 39 | 2.6 | 7.8 | 0.00 | 0.00 | 0.00 | 81 | 1018.0 |
| 20260507103018 | 60 | 55 | 2.6 | 7.8 | 0.00 | 0.00 | 0.00 | 82 | 1018.1 |
| 20260507102026 | 60 | 69 | 2.6 | 7.8 | 0.00 | 0.00 | 0.00 | 81 | 1018.2 |
| 20260507101019 | 60 | 60 | 2.6 | 8.7 | 0.00 | 0.00 | 0.00 | 81 | 1018.2 |
| 20260507100026 | 60 | 79 | 2.6 | 7.0 | 0.00 | 0.00 | 0.00 | 80 | 1018.1 |
| 20260507095018 | 60 | 67 | 2.6 | 5.2 | 0.00 | 0.00 | 0.00 | 81 | 1018.1 |
| 20260507094042 | 60 | 34 | 1.7 | 6.1 | 0.00 | 0.00 | 0.00 | 80 | 1018.2 |
| 20260507093052 | 59 | 34 | 1.7 | 2.6 | 0.00 | 0.00 | 0.00 | 81 | 1018.2 |
| 20260507092026 | 59 | 48 | 2.6 | 7.0 | 0.00 | 0.00 | 0.00 | 82 | 1018.3 |
| 20260507091038 | 59 | 61 | 2.6 | 7.8 | 0.00 | 0.00 | 0.00 | 83 | 1018.3 |
| 20260507090042 | 58 | 61 | 1.7 | 5.2 | 0.00 | 0.00 | 0.00 | 84 | 1018.4 |
| 20260507085020 | 58 | 53 | 2.6 | 7.8 | 0.00 | 0.00 | 0.00 | 85 | 1018.3 |
| 20260507084043 | 57 | 58 | 2.6 | 7.8 | 0.00 | 0.00 | 0.00 | 85 | 1018.3 |
| 20260507083034 | 56 | 54 | 2.6 | 7.0 | 0.00 | 0.00 | 0.00 | 87 | 1018.3 |
| 20260507082029 | 58 | 71 | 2.6 | 8.7 | 0.00 | 0.00 | 0.00 | 84 | 1018.3 |
| 20260507081018 | 56 | 67 | 2.6 | 6.1 | 0.00 | 0.00 | 0.00 | 84 | 1018.3 |
| 20260507080042 | 56 | 75 | 2.6 | 7.0 | 0.00 | 0.00 | 0.00 | 86 | 1018.3 |
| 20260507075034 | 57 | 75 | 3.5 | 6.1 | 0.00 | 0.00 | 0.00 | 82 | 1018.4 |
| 20260507074027 | 56 | 70 | 1.7 | 5.2 | 0.00 | 0.00 | 0.00 | 84 | 1018.5 |
| 20260507073018 | 58 | 80 | 2.6 | 5.2 | 0.00 | 0.00 | 0.00 | 81 | 1018.4 |
| 20260507072033 | 57 | 124 | 0.9 | 2.6 | 0.00 | 0.00 | 0.00 | 81 | 1018.4 |
| 20260507071034 | 57 | 180 | 1.7 | 4.3 | 0.00 | 0.00 | 0.00 | 82 | 1018.5 |
| 20260507070026 | 56 | 119 | 1.7 | 5.2 | 0.00 | 0.00 | 0.00 | 84 | 1018.6 |
| 20260507065018 | 54 | 73 | 1.7 | 4.3 | 0.00 | 0.00 | 0.00 | 89 | 1018.3 |
| 20260507064042 | 53 | 66 | 0.9 | 2.6 | 0.00 | 0.00 | 0.00 | 95 | 1018.4 |